Location: Haliburton Scout Reserve
(45.0900°N, 78.3200°W)
Time: 02:12:52
(UTC-04:00)

NANOSAT C BR1 - Pass Details

Date: 19 May 2022
Orbit: 583 x 601 km, 98.0° (Epoch: 27 June)

Event Time Altitude Azimuth Distance (km) Brightness Sun altitude
Rises 02:05:47 0° 32° (NNE) 2,822 ? -23.9°
Reaches altitude 10° 02:08:58 10° 59° (ENE) 1,912 ? -23.7°
Maximum altitude 02:11:06 14° 90° (E) 1,672 ? -23.6°
Enters shadow 02:12:15 13° 108° (ESE) 1,741 ? -23.6°
